Regional Weather Roundup
Issued by NWS Sioux Falls, SD

Home | Current Version | Previous Version | Text Only | Print | Product List | Glossary Off
Versions: 1 2 3 4 5 6 7 8 9 10 11 12 13 14 15 16 17 18 19 20 21 22 23 24 25 26 27 28 29 30 31 32 33 34 35 36 37 38 39 40 41 42 43 44 45 46 47 48 49 50

000
ASUS43 KFSD 272310
RWRFSD

WEATHER ROUNDUP FOR SE SOUTH DAKOTA/SW MINNESOTA/NW IOWA
NATIONAL WEATHER SERVICE SIOUX FALLS SD
500 PM CST TUE JAN 27 2015

NOTE: "FAIR" INDICATES FEW OR NO CLOUDS BELOW 12,000 FEET WITH NO
SIGNIFICANT WEATHER AND OR OBSTRUCTIONS TO VISIBILITY.


SDZ038>040-050-052>070-280000-
SOUTHEAST SOUTH DAKOTA

CITY           SKY/WX    TMP DP  RH WIND       PRES   REMARKS
CHAMBERLAIN    CLEAR     52  38  59 SE9       29.88S
HURON          CLEAR     39  35  86 SE15G22   29.93R
MADISON        FAIR      32  32 100 SE14      29.97F WCI  22
MITCHELL       CLEAR     43  39  86 SE12      29.95S
SIOUX FALLS    MOCLDY    41  35  79 SE12      30.00S
WINNER         FAIR      63  36  36 E3        29.87F
YANKTON        CLEAR     50  36  57 SE12      29.98S
$$

MNZ071-072-080-081-089-090-097-098-280000-
SOUTHWEST MINNESOTA

CITY           SKY/WX    TMP DP  RH WIND       PRES   REMARKS
FAIRMONT       CLOUDY    36  28  75 SE12      30.10F
JACKSON        CLOUDY    36  32  87 SE14      30.08F
LUVERNE        CLEAR     41  36  81 SE12      30.02S
MARSHALL       MOCLDY    37  32  81 SE14      30.04F
MONTEVIDEO     CLOUDY    34  32  93 S13G18    30.04F WCI  25
PIPESTONE      CLEAR     37  37 100 SE12      29.99F
REDWOOD FALLS  CLOUDY    35  31  85 SE14      30.07F WCI  26
TRACY          MOCLDY    38  34  85 SE12      30.04S
WINDOM         CLOUDY    37  34  87 SE12G18   30.06F
WORTHINGTON    PTCLDY    37  32  81 SE12      30.05S
$$

IAZ001>003-012>014-020>022-031-032-NEZ013-014-SDZ071-280000-
NORTHWEST IOWA

CITY           SKY/WX    TMP DP  RH WIND       PRES   REMARKS
CHEROKEE       CLEAR     42  37  82 SE6       30.05F
DENISON        CLEAR     46  34  61 SE8       30.03F
ESTHERVILLE    CLOUDY    36  33  89 SE13      30.08F
LE MARS        CLEAR     45  37  76 SE7       30.03S
ORANGE CITY    CLEAR     43  36  75 SE7       30.02F
SHELDON        CLEAR     41  37  87 SE12      30.02F
SIOUX CITY     CLEAR     48  36  63 SE9       30.02F
SPENCER        PTCLDY    41  34  76 SE13      30.07F
STORM LAKE     CLEAR     39  36  87 SE10      30.06S
$$

ABBREVIATIONS USED IN REMARKS
   TC - TEMPERATURE IN CELSIUS
  WCI - WIND CHILL INDEX
   HX - HEAT INDEX
  VSB - VISIBILITY



USA.gov is the U.S. government's official web portal to all federal, state and local government web resources and services.